Home > Weather > Wels > Past weeks

Flag for Austria Past Weather in Wels, Upper Austria, Austria — Yesterday and Last 2 Weeks

Now
73 °F

Sunny.


Feels Like: 76 °F
Forecast: 61 / 85 °F
Wind: N/A

Location: Linz / Hoersching-Flughafen

Current Time: Aug 27, 2016 at 12:11:47 PM

Latest Report: Aug 27, 2016 at 11:00 AM


Visibility: 13 mi

Pressure: 30.12 "Hg

Humidity: 61%

Dew Point: 58 °F

Location of WelsLocation

Past Weather in Wels — Graph

°F

Wels Temperature Yesterday

Maximum temperature yesterday: 83 °F (at 5:00 PM)
Minimum temperature yesterday: 56 °F (at 6:00 AM)
Average temperature yesterday: 70 °F

High & Low Weather Summary for the Past Weeks

 TemperatureHumidityPressure
High83 °F (Aug 20, 4:00 PM)98% (Aug 16, 5:00 AM)30.42 "Hg (Aug 16, 5:00 AM)
Low53 °F (Aug 23, 6:00 AM)35% (Aug 20, 5:00 PM)29.77 "Hg (Aug 18, 5:00 PM)
Average67 °F73%30.10 "Hg
* Reported Aug 12 10:00 AM — Aug 27 10:00 AM, Wels, Weather by CustomWeather, © 2016

Note: Actual official high and low records may vary slightly from our data, if they occured in-between our weather recording intervals... More about our weather records

Advertising

Wels Weather History for the Previous 24 Hours

Scroll right to see more
 ConditionsComfort  
Time TempWeatherWind HumidityBarometerVisibility
10:00 AM
Sat, Aug 27
70 °FSunny.5 mph65%30.13 "Hg18 mi
9:00 AM67 °FSunny.3 mph74%30.13 "Hg17 mi
8:00 AM63 °FSunny.N/A83%30.14 "Hg11 mi
7:00 AM56 °FSunny.N/A96%30.15 "Hg4 mi
5:00 AM59 °FClear.N/A93%30.14 "Hg6 mi
4:00 AM60 °FClear.N/A92%30.14 "Hg7 mi
3:00 AM60 °FCool.N/A90%30.13 "Hg9 mi
2:00 AM61 °FCool.N/A87%30.12 "Hg16 mi
1:00 AM63 °FMild.N/A83%30.12 "Hg15 mi
12:00 AM65 °FMild.N/A79%30.11 "Hg22 mi
11:00 PM
Fri, Aug 26
68 °FMild.N/A74%30.10 "Hg22 mi
10:00 PM69 °FMild.N/A68%30.09 "Hg31 mi
9:00 PM72 °FMild.N/A62%30.08 "Hg28 mi
8:00 PM76 °FClear.N/A56%30.06 "Hg11 mi
7:00 PM81 °FSunny.N/A47%30.04 "Hg25 mi
6:00 PM83 °FSunny.N/A43%30.04 "Hg19 mi
5:00 PM83 °FSunny.3 mph43%30.05 "Hg22 mi
4:00 PM83 °FSunny.N/A40%30.06 "Hg22 mi
3:00 PM82 °FSunny.3 mph42%30.07 "Hg19 mi
2:00 PM80 °FSunny.3 mph45%30.08 "Hg25 mi
1:00 PM77 °FSunny.N/A49%30.09 "Hg19 mi
12:00 PM74 °FSunny.5 mph55%30.10 "Hg17 mi
Weather by CustomWeather, © 2016

See weather overviewHow to use our weather pages